30/04/2024 15:15:00,0.359
30/04/2024 15:30:00,0.369
30/04/2024 15:45:00,0.38
30/04/2024 16:00:00,0.392
30/04/2024 16:15:00,0.405
30/04/2024 16:30:00,0.419
30/04/2024 16:45:00,0.431
30/04/2024 17:00:00,0.443
30/04/2024 17:15:00,0.452
30/04/2024 17:30:00,0.458
30/04/2024 17:45:00,0.465
30/04/2024 18:00:00,0.468
30/04/2024 18:15:00,0.468
30/04/2024 18:30:00,0.472
30/04/2024 18:45:00,0.472
30/04/2024 19:00:00,0.472
30/04/2024 19:15:00,0.47
30/04/2024 19:30:00,0.467
30/04/2024 19:45:00,0.467
30/04/2024 20:00:00,0.465
30/04/2024 20:15:00,0.464
30/04/2024 20:30:00,0.46
30/04/2024 20:45:00,0.458
30/04/2024 21:00:00,0.456
30/04/2024 21:15:00,0.453
30/04/2024 21:30:00,0.448
30/04/2024 21:45:00,0.445
30/04/2024 22:00:00,0.443
30/04/2024 22:15:00,0.441
30/04/2024 22:30:00,0.437
30/04/2024 22:45:00,0.434
30/04/2024 23:00:00,0.432
30/04/2024 23:15:00,0.43
30/04/2024 23:30:00,0.426
30/04/2024 23:45:00,0.425
01/05/2024 00:00:00,0.423
01/05/2024 00:15:00,0.423
01/05/2024 00:30:00,0.421
01/05/2024 00:45:00,0.42
01/05/2024 01:00:00,0.419
01/05/2024 01:15:00,0.416
01/05/2024 01:30:00,0.415
01/05/2024 01:45:00,0.414
01/05/2024 02:00:00,0.412
01/05/2024 02:15:00,0.41
01/05/2024 02:30:00,0.408
01/05/2024 02:45:00,0.405
01/05/2024 03:00:00,0.403
01/05/2024 03:15:00,0.402
01/05/2024 03:30:00,0.4
01/05/2024 03:45:00,0.399
01/05/2024 04:00:00,0.396
01/05/2024 04:15:00,0.393
01/05/2024 04:30:00,0.391
01/05/2024 04:45:00,0.389
01/05/2024 05:00:00,0.386
01/05/2024 05:15:00,0.383
01/05/2024 05:30:00,0.381
01/05/2024 05:45:00,0.379
01/05/2024 06:00:00,0.377
01/05/2024 06:15:00,0.373
01/05/2024 06:30:00,0.372
01/05/2024 06:45:00,0.369
01/05/2024 07:00:00,0.368
01/05/2024 07:15:00,0.366
01/05/2024 07:30:00,0.362
01/05/2024 07:45:00,0.36
01/05/2024 08:00:00,0.359
01/05/2024 08:15:00,0.357
01/05/2024 08:30:00,0.354
01/05/2024 08:45:00,0.351
01/05/2024 09:00:00,0.349
01/05/2024 09:15:00,0.347
01/05/2024 09:30:00,0.346
01/05/2024 09:45:00,0.343
01/05/2024 10:00:00,0.339
01/05/2024 10:15:00,0.338
01/05/2024 10:30:00,0.336
01/05/2024 10:45:00,0.336
01/05/2024 11:00:00,0.334
01/05/2024 11:15:00,0.332
01/05/2024 11:30:00,0.329
01/05/2024 11:45:00,0.327
01/05/2024 12:00:00,0.325
01/05/2024 12:15:00,0.324
01/05/2024 12:30:00,0.323
01/05/2024 12:45:00,0.321
01/05/2024 13:00:00,0.32
01/05/2024 13:15:00,0.317
01/05/2024 13:30:00,0.316
01/05/2024 13:45:00,0.314
01/05/2024 14:00:00,0.314
01/05/2024 14:15:00,0.311
01/05/2024 14:30:00,0.31
01/05/2024 14:45:00,0.309
01/05/2024 15:00:00,0.306
01/05/2024 15:15:00,0.304
01/05/2024 15:30:00,0.304
01/05/2024 15:45:00,0.303
01/05/2024 16:00:00,0.302
01/05/2024 16:15:00,0.301
01/05/2024 16:30:00,0.299
01/05/2024 16:45:00,0.296
01/05/2024 17:00:00,0.295
01/05/2024 17:15:00,0.293
01/05/2024 17:30:00,0.292
01/05/2024 17:45:00,0.291
01/05/2024 18:00:00,0.29
01/05/2024 18:15:00,0.288
01/05/2024 18:30:00,0.286
01/05/2024 18:45:00,0.286
01/05/2024 19:00:00,0.284
01/05/2024 19:15:00,0.283
01/05/2024 19:30:00,0.282
01/05/2024 19:45:00,0.281
01/05/2024 20:00:00,0.279
01/05/2024 20:15:00,0.278
01/05/2024 20:30:00,0.277
01/05/2024 20:45:00,0.274
01/05/2024 21:00:00,0.273
01/05/2024 21:15:00,0.271
01/05/2024 21:30:00,0.271
01/05/2024 21:45:00,0.27
01/05/2024 22:00:00,0.268
01/05/2024 22:15:00,0.267
01/05/2024 22:30:00,0.264
01/05/2024 22:45:00,0.263
01/05/2024 23:00:00,0.261
01/05/2024 23:15:00,0.26
01/05/2024 23:30:00,0.26
01/05/2024 23:45:00,0.259
02/05/2024 00:00:00,0.258
02/05/2024 00:15:00,0.256
02/05/2024 00:30:00,0.255
02/05/2024 00:45:00,0.253
02/05/2024 01:00:00,0.251
02/05/2024 01:15:00,0.25
02/05/2024 01:30:00,0.249
02/05/2024 01:45:00,0.248
02/05/2024 02:00:00,0.248
02/05/2024 02:15:00,0.246
02/05/2024 02:30:00,0.245
02/05/2024 02:45:00,0.245
02/05/2024 03:00:00,0.244
02/05/2024 03:15:00,0.244
02/05/2024 03:30:00,0.241
02/05/2024 03:45:00,0.24
02/05/2024 04:00:00,0.24
02/05/2024 04:15:00,0.238
02/05/2024 04:30:00,0.238
02/05/2024 04:45:00,0.238
02/05/2024 05:00:00,0.237
02/05/2024 05:15:00,0.238
02/05/2024 05:30:00,0.236
02/05/2024 05:45:00,0.235
02/05/2024 06:00:00,0.234
02/05/2024 06:15:00,0.233
02/05/2024 06:30:00,0.231
02/05/2024 06:45:00,0.231
02/05/2024 07:00:00,0.231
02/05/2024 07:15:00,0.23
02/05/2024 07:30:00,0.23
02/05/2024 07:45:00,0.23
02/05/2024 08:00:00,0.23
02/05/2024 08:15:00,0.23
02/05/2024 08:30:00,0.229
02/05/2024 08:45:00,0.23
02/05/2024 09:00:00,0.228
02/05/2024 09:15:00,0.229
02/05/2024 09:30:00,0.227
02/05/2024 09:45:00,0.226
02/05/2024 10:00:00,0.226
02/05/2024 10:15:00,0.225
02/05/2024 10:30:00,0.225
02/05/2024 10:45:00,0.225
02/05/2024 11:00:00,0.225
02/05/2024 11:15:00,0.225
02/05/2024 11:30:00,0.224
02/05/2024 11:45:00,0.225
02/05/2024 12:00:00,0.225
02/05/2024 12:15:00,0.224
02/05/2024 12:30:00,0.223
02/05/2024 12:45:00,0.222
02/05/2024 13:00:00,0.22
02/05/2024 13:15:00,0.222
02/05/2024 13:30:00,0.22
02/05/2024 13:45:00,0.219
02/05/2024 14:00:00,0.219
02/05/2024 14:15:00,0.219
02/05/2024 14:30:00,0.218
02/05/2024 14:45:00,0.218
02/05/2024 15:00:00,0.217
02/05/2024 15:15:00,0.217
02/05/2024 15:30:00,0.216
02/05/2024 15:45:00,0.216
02/05/2024 16:00:00,0.216
02/05/2024 16:15:00,0.214
02/05/2024 16:30:00,0.214
02/05/2024 16:45:00,0.213
02/05/2024 17:00:00,0.213
02/05/2024 17:15:00,0.212
02/05/2024 17:30:00,0.212
02/05/2024 17:45:00,0.21
02/05/2024 18:00:00,0.208
02/05/2024 18:15:00,0.209
02/05/2024 18:30:00,0.208
02/05/2024 18:45:00,0.208
02/05/2024 19:00:00,0.208
02/05/2024 19:15:00,0.207
02/05/2024 19:30:00,0.206
02/05/2024 19:45:00,0.206
02/05/2024 20:00:00,0.206
02/05/2024 20:15:00,0.206
02/05/2024 20:30:00,0.206
02/05/2024 20:45:00,0.205
02/05/2024 21:00:00,0.205
02/05/2024 21:15:00,0.204
02/05/2024 21:30:00,0.204
02/05/2024 21:45:00,0.202
02/05/2024 22:00:00,0.202
02/05/2024 22:15:00,0.202
02/05/2024 22:30:00,0.201
02/05/2024 22:45:00,0.201
02/05/2024 23:00:00,0.201
02/05/2024 23:15:00,0.198
02/05/2024 23:30:00,0.198
02/05/2024 23:45:00,0.198
03/05/2024 00:00:00,0.197
03/05/2024 00:15:00,0.196
03/05/2024 00:30:00,0.195
03/05/2024 00:45:00,0.195
03/05/2024 01:00:00,0.195
03/05/2024 01:15:00,0.195
03/05/2024 01:30:00,0.194
03/05/2024 01:45:00,0.193
03/05/2024 02:00:00,0.192
03/05/2024 02:15:00,0.192
03/05/2024 02:30:00,0.192
03/05/2024 02:45:00,0.192
03/05/2024 03:00:00,0.191
03/05/2024 03:15:00,0.191
03/05/2024 03:30:00,0.19
03/05/2024 03:45:00,0.188
03/05/2024 04:00:00,0.188
03/05/2024 04:15:00,0.188
03/05/2024 04:30:00,0.187
03/05/2024 04:45:00,0.187
03/05/2024 05:00:00,0.186
03/05/2024 05:15:00,0.186
03/05/2024 05:30:00,0.185
03/05/2024 05:45:00,0.185
03/05/2024 06:00:00,0.185
03/05/2024 06:15:00,0.185
03/05/2024 06:30:00,0.185
03/05/2024 06:45:00,0.184
03/05/2024 07:00:00,0.184
03/05/2024 07:15:00,0.184
03/05/2024 07:30:00,0.184
03/05/2024 07:45:00,0.184
03/05/2024 08:00:00,0.184
03/05/2024 08:15:00,0.184
03/05/2024 08:30:00,0.184
03/05/2024 08:45:00,0.184
03/05/2024 09:00:00,0.183
03/05/2024 09:15:00,0.183
03/05/2024 09:30:00,0.183
03/05/2024 09:45:00,0.183
03/05/2024 10:00:00,0.183
03/05/2024 10:15:00,0.183
03/05/2024 10:30:00,0.183
03/05/2024 10:45:00,0.183
03/05/2024 11:00:00,0.183
03/05/2024 11:15:00,0.183
03/05/2024 11:30:00,0.183
03/05/2024 11:45:00,0.183
03/05/2024 12:00:00,0.183
03/05/2024 12:15:00,0.183
03/05/2024 12:30:00,0.183
03/05/2024 12:45:00,0.181
03/05/2024 13:00:00,0.181
03/05/2024 13:15:00,0.181
03/05/2024 13:30:00,0.181
03/05/2024 13:45:00,0.181
03/05/2024 14:00:00,0.181
03/05/2024 14:15:00,0.181
03/05/2024 14:30:00,0.181
03/05/2024 14:45:00,0.181
03/05/2024 15:00:00,0.181
03/05/2024 15:15:00,0.181
03/05/2024 15:30:00,0.181
03/05/2024 15:45:00,0.18
03/05/2024 16:00:00,0.18
03/05/2024 16:15:00,0.18
03/05/2024 16:30:00,0.18
03/05/2024 16:45:00,0.18
03/05/2024 17:00:00,0.18
03/05/2024 17:15:00,0.181
03/05/2024 17:30:00,0.181
03/05/2024 17:45:00,0.182
03/05/2024 18:00:00,0.181
03/05/2024 18:15:00,0.181
03/05/2024 18:30:00,0.182
03/05/2024 18:45:00,0.181
03/05/2024 19:00:00,0.182
03/05/2024 19:15:00,0.182
03/05/2024 19:30:00,0.184
03/05/2024 19:45:00,0.185
03/05/2024 20:00:00,0.185
03/05/2024 20:15:00,0.187
03/05/2024 20:30:00,0.187
03/05/2024 20:45:00,0.187
03/05/2024 21:00:00,0.187
03/05/2024 21:15:00,0.187
03/05/2024 21:30:00,0.187
03/05/2024 21:45:00,0.186
03/05/2024 22:00:00,0.186
03/05/2024 22:15:00,0.185
03/05/2024 22:30:00,0.184
03/05/2024 22:45:00,0.184
03/05/2024 23:00:00,0.184
03/05/2024 23:15:00,0.184
03/05/2024 23:30:00,0.183
03/05/2024 23:45:00,0.183
04/05/2024 00:00:00,0.183
04/05/2024 00:15:00,0.182
04/05/2024 00:30:00,0.182
04/05/2024 00:45:00,0.181
04/05/2024 01:00:00,0.181
04/05/2024 01:15:00,0.179
04/05/2024 01:30:00,0.179
04/05/2024 01:45:00,0.177
04/05/2024 02:00:00,0.176
04/05/2024 02:15:00,0.176
04/05/2024 02:30:00,0.175
04/05/2024 02:45:00,0.175
04/05/2024 03:00:00,0.175
04/05/2024 03:15:00,0.175
04/05/2024 03:30:00,0.175
04/05/2024 03:45:00,0.175
04/05/2024 04:00:00,0.175
04/05/2024 04:15:00,0.174
04/05/2024 04:30:00,0.174
04/05/2024 04:45:00,0.174
04/05/2024 05:00:00,0.174
04/05/2024 05:15:00,0.173
04/05/2024 05:30:00,0.173
04/05/2024 05:45:00,0.173
04/05/2024 06:00:00,0.173
04/05/2024 06:15:00,0.173
04/05/2024 06:30:00,0.174
04/05/2024 06:45:00,0.174
04/05/2024 07:00:00,0.174
04/05/2024 07:15:00,0.175
04/05/2024 07:30:00,0.175
04/05/2024 07:45:00,0.175
04/05/2024 08:00:00,0.175
04/05/2024 08:15:00,0.175
04/05/2024 08:30:00,0.175
04/05/2024 08:45:00,0.175
04/05/2024 09:00:00,0.175
04/05/2024 09:15:00,0.175
04/05/2024 09:30:00,0.175
04/05/2024 09:45:00,0.175
04/05/2024 10:00:00,0.175
04/05/2024 10:15:00,0.175
04/05/2024 10:30:00,0.175
04/05/2024 10:45:00,0.175
04/05/2024 11:00:00,0.175
04/05/2024 11:15:00,0.175
04/05/2024 11:30:00,0.175
04/05/2024 11:45:00,0.175
04/05/2024 12:00:00,0.175
04/05/2024 12:15:00,0.175
04/05/2024 12:30:00,0.175
04/05/2024 12:45:00,0.175
04/05/2024 13:00:00,0.175
04/05/2024 13:15:00,0.175
04/05/2024 13:30:00,0.175
04/05/2024 13:45:00,0.175
04/05/2024 14:00:00,0.175
04/05/2024 14:15:00,0.175
04/05/2024 14:30:00,0.175
04/05/2024 14:45:00,0.175
04/05/2024 15:00:00,0.175
04/05/2024 15:15:00,0.175
04/05/2024 15:30:00,0.174
04/05/2024 15:45:00,0.174
04/05/2024 16:00:00,0.173
04/05/2024 16:15:00,0.173
04/05/2024 16:30:00,0.173
04/05/2024 16:45:00,0.173
04/05/2024 17:00:00,0.173
04/05/2024 17:15:00,0.173
04/05/2024 17:30:00,0.173
04/05/2024 17:45:00,0.173
04/05/2024 18:00:00,0.174
04/05/2024 18:15:00,0.174
04/05/2024 18:30:00,0.174
04/05/2024 18:45:00,0.175
04/05/2024 19:00:00,0.175
04/05/2024 19:15:00,0.175
04/05/2024 19:30:00,0.175
04/05/2024 19:45:00,0.175
04/05/2024 20:00:00,0.175
04/05/2024 20:15:00,0.175
04/05/2024 20:30:00,0.175
04/05/2024 20:45:00,0.175
04/05/2024 21:00:00,0.175
04/05/2024 21:15:00,0.177
04/05/2024 21:30:00,0.179
04/05/2024 21:45:00,0.179
04/05/2024 22:00:00,0.18
04/05/2024 22:15:00,0.181
04/05/2024 22:30:00,0.181
04/05/2024 22:45:00,0.183
04/05/2024 23:00:00,0.184
04/05/2024 23:15:00,0.184
04/05/2024 23:30:00,0.184
04/05/2024 23:45:00,0.184
05/05/2024 00:00:00,0.184
05/05/2024 00:15:00,0.184
05/05/2024 00:30:00,0.184
05/05/2024 00:45:00,0.184
05/05/2024 01:00:00,0.184
05/05/2024 01:15:00,0.184
05/05/2024 01:30:00,0.184
05/05/2024 01:45:00,0.184
05/05/2024 02:00:00,0.184
05/05/2024 02:15:00,0.184
05/05/2024 02:30:00,0.184
05/05/2024 02:45:00,0.184
05/05/2024 03:00:00,0.184
05/05/2024 03:15:00,0.184
05/05/2024 03:30:00,0.184
05/05/2024 03:45:00,0.184
05/05/2024 04:00:00,0.184
05/05/2024 04:15:00,0.184
05/05/2024 04:30:00,0.184
05/05/2024 04:45:00,0.184
05/05/2024 05:00:00,0.184
05/05/2024 05:15:00,0.184
05/05/2024 05:30:00,0.184
05/05/2024 05:45:00,0.184
05/05/2024 06:00:00,0.184
05/05/2024 06:15:00,0.184
05/05/2024 06:30:00,0.184
05/05/2024 06:45:00,0.184
05/05/2024 07:00:00,0.184
05/05/2024 07:15:00,0.184
05/05/2024 07:30:00,0.184
05/05/2024 07:45:00,0.184
05/05/2024 08:00:00,0.184
05/05/2024 08:15:00,0.184
05/05/2024 08:30:00,0.184
05/05/2024 08:45:00,0.184
05/05/2024 09:00:00,0.185
05/05/2024 09:15:00,0.185
05/05/2024 09:30:00,0.185
05/05/2024 09:45:00,0.185
05/05/2024 10:00:00,0.185
05/05/2024 10:15:00,0.185
05/05/2024 10:30:00,0.185
05/05/2024 10:45:00,0.186
05/05/2024 11:00:00,0.186
05/05/2024 11:15:00,0.186
05/05/2024 11:30:00,0.186
05/05/2024 11:45:00,0.186
05/05/2024 12:00:00,0.186
05/05/2024 12:15:00,0.187
05/05/2024 12:30:00,0.187
05/05/2024 12:45:00,0.188
05/05/2024 13:00:00,0.188
05/05/2024 13:15:00,0.188
05/05/2024 13:30:00,0.188
05/05/2024 13:45:00,0.188
05/05/2024 14:00:00,0.187
